{"data":{"norad_id":64476,"intl_designator":"2025-133E","name":"STARLINK-34496","alt_names":[],"object_type":"PAYLOAD","status":"ACTIVE","operator":null,"country":"US","launch_date":"2025-06-23","launch_site_code":"AFETR","launch_vehicle":null,"mission":null,"orbit_class":"UNKNOWN","rcs_meters":null,"size_class":null,"mass_kg":null,"dimensions":null,"purposes":["comms"],"wikipedia_slug":null,"has_3d_model":false,"image_url":null,"decayed_at":null,"tle_current":{"epoch":"2026-09-20T19:08:42.783360Z","epoch_age_seconds":105905,"freshness":"FRESH","line1":"1 64476U 25133E   26263.79771740  .00010123  00000+0  31029-3 0  9996","line2":"2 64476  53.1583 284.6286 0001422 105.7989 254.3171 15.34404068 71138","mean_motion":15.34404068,"eccentricity":0.0001422,"inclination_deg":53.1583,"raan_deg":284.6286,"arg_perigee_deg":105.7989,"mean_anomaly_deg":254.3171,"bstar":0.00031029,"rev_number":7113,"period_min":93.847509272896,"perigee_km":461.7183835177,"apogee_km":463.66391504335,"semimajor_km":6840.8281492805,"source":"CELESTRAK","updated_at":"2026-09-21T09:00:35.358866Z"}}}